TimeEST,TemperatureF,Dew PointF,Humidity,Sea Level PressureIn,VisibilityMPH,Wind Direction,Wind SpeedMPH,Gust SpeedMPH,PrecipitationIn,Events,Conditions,WindDirDegrees,DateUTC
12:53 AM,66.9,63.0,87,30.04,10.0,NNE,16.1,24.2,N/A,,Overcast,30,2014-01-30 05:53:00
1:09 AM,66.2,62.6,88,30.06,2.5,NNE,10.4,21.9,0.05,Rain,Light Rain,20,2014-01-30 06:09:00
1:23 AM,64.4,64.4,100,30.05,1.5,NNE,12.7,-,0.25,Rain,Heavy Rain,30,2014-01-30 06:23:00
1:33 AM,66.2,64.4,94,30.05,3.0,NNE,12.7,21.9,0.28,Rain,Light Rain,20,2014-01-30 06:33:00
1:53 AM,64.9,64.0,97,30.04,10.0,NNE,10.4,-,0.28,,Overcast,30,2014-01-30 06:53:00
2:53 AM,66.0,64.0,93,30.02,10.0,NE,9.2,-,N/A,,Overcast,40,2014-01-30 07:53:00
3:53 AM,66.0,64.0,93,30.03,10.0,NNE,11.5,-,N/A,,Overcast,30,2014-01-30 08:53:00
4:53 AM,66.0,64.0,93,30.01,10.0,NE,12.7,-,N/A,,Overcast,40,2014-01-30 09:53:00
5:54 AM,66.2,64.4,94,30.02,10.0,NE,10.4,-,N/A,,Overcast,40,2014-01-30 10:54:00
6:28 AM,66.2,64.4,94,30.02,10.0,NE,10.4,-,N/A,,Mostly Cloudy,50,2014-01-30 11:28:00
6:53 AM,66.9,64.9,93,30.03,10.0,NE,9.2,-,N/A,,Mostly Cloudy,50,2014-01-30 11:53:00
7:38 AM,66.2,64.4,94,30.04,10.0,NE,8.1,-,N/A,,Overcast,50,2014-01-30 12:38:00
7:53 AM,66.9,64.9,93,30.05,10.0,NE,6.9,-,0.00,Rain,Light Rain,40,2014-01-30 12:53:00
8:53 AM,68.0,66.0,93,30.07,6.0,NE,5.8,-,0.01,Rain,Light Rain,40,2014-01-30 13:53:00
9:53 AM,66.9,64.9,93,30.09,4.0,North,8.1,-,0.04,Rain,Light Rain,10,2014-01-30 14:53:00
10:40 AM,66.2,64.4,94,30.10,10.0,NNE,9.2,-,0.02,,Overcast,30,2014-01-30 15:40:00
10:53 AM,66.9,64.9,93,30.09,10.0,NNE,12.7,-,0.02,,Overcast,30,2014-01-30 15:53:00
11:28 AM,66.2,64.4,94,30.10,9.0,NNE,10.4,-,0.00,Rain,Light Rain,20,2014-01-30 16:28:00
11:53 AM,66.9,64.9,93,30.08,2.0,NNE,13.8,-,0.04,Rain,Light Rain,20,2014-01-30 16:53:00
12:09 PM,66.2,64.4,94,30.08,6.0,NNE,12.7,-,0.01,Rain,Light Rain,20,2014-01-30 17:09:00
12:17 PM,66.2,64.4,94,30.07,10.0,NNE,11.5,-,0.01,,Overcast,20,2014-01-30 17:17:00
12:53 PM,66.9,66.0,97,30.06,10.0,NNE,11.5,-,0.01,,Overcast,30,2014-01-30 17:53:00
1:14 PM,69.8,66.2,88,30.04,10.0,NNE,13.8,-,0.00,,Overcast,30,2014-01-30 18:14:00
1:53 PM,69.1,66.9,93,30.03,10.0,NNE,11.5,-,0.00,,Overcast,20,2014-01-30 18:53:00
2:53 PM,68.0,66.0,93,30.03,4.0,NNE,12.7,-,0.02,Rain,Light Rain,30,2014-01-30 19:53:00
3:05 PM,68.0,66.2,94,30.03,1.8,NNE,12.7,-,0.03,Rain,Light Rain,20,2014-01-30 20:05:00
3:14 PM,68.0,66.2,94,30.02,3.0,NNE,13.8,-,0.04,Rain,Light Rain,20,2014-01-30 20:14:00
3:53 PM,68.0,66.0,93,30.03,10.0,NNE,15.0,21.9,0.04,,Overcast,20,2014-01-30 20:53:00
4:16 PM,66.2,64.4,94,30.03,3.0,NNE,15.0,-,0.00,Rain,Light Rain,30,2014-01-30 21:16:00
4:53 PM,68.0,66.0,93,30.02,10.0,NNE,13.8,-,0.00,,Overcast,30,2014-01-30 21:53:00
5:02 PM,68.0,66.2,94,30.03,10.0,NNE,15.0,-,N/A,,Overcast,30,2014-01-30 22:02:00
5:53 PM,68.0,64.9,90,30.02,10.0,NE,12.7,19.6,N/A,,Overcast,40,2014-01-30 22:53:00
6:14 PM,68.0,64.4,88,30.03,10.0,NE,9.2,19.6,N/A,,Mostly Cloudy,40,2014-01-30 23:14:00
6:42 PM,68.0,64.4,88,30.02,10.0,NE,11.5,19.6,N/A,,Mostly Cloudy,50,2014-01-30 23:42:00
6:53 PM,68.0,64.9,90,30.02,10.0,NE,11.5,-,N/A,,Mostly Cloudy,40,2014-01-30 23:53:00
7:53 PM,68.0,66.0,93,30.03,10.0,NE,10.4,-,N/A,,Overcast,50,2014-01-31 00:53:00
8:53 PM,68.0,66.0,93,30.04,6.0,NE,9.2,-,0.03,Rain,Light Rain,50,2014-01-31 01:53:00
9:22 PM,68.0,66.2,94,30.06,2.5,NE,4.6,-,0.12,Rain,Heavy Rain,50,2014-01-31 02:22:00
9:30 PM,68.0,66.2,94,30.05,1.5,ENE,6.9,-,0.32,Rain,Heavy Rain,60,2014-01-31 02:30:00
9:34 PM,68.0,66.2,94,30.05,1.0,NE,9.2,-,0.41,Rain,Heavy Rain,50,2014-01-31 02:34:00
9:43 PM,68.0,66.2,94,30.05,2.5,NE,11.5,-,0.44,Rain,Light Rain,50,2014-01-31 02:43:00
9:53 PM,68.0,66.9,96,30.05,9.0,ENE,10.4,-,0.44,,Overcast,60,2014-01-31 02:53:00
10:01 PM,68.0,66.2,94,30.05,9.0,NE,8.1,-,N/A,,Overcast,40,2014-01-31 03:01:00
10:08 PM,68.0,66.2,94,30.05,10.0,NE,8.1,-,N/A,,Mostly Cloudy,50,2014-01-31 03:08:00
10:37 PM,68.0,66.2,94,30.05,10.0,NNE,6.9,-,N/A,,Mostly Cloudy,30,2014-01-31 03:37:00
10:53 PM,68.0,66.9,96,30.04,10.0,NNE,9.2,-,N/A,,Overcast,30,2014-01-31 03:53:00
11:53 PM,68.0,66.9,96,30.03,9.0,ENE,8.1,-,0.00,,Overcast,60,2014-01-31 04:53:00